Location: Cointrin
(46.2167°N, 6.1167°E)
Time: 17:07:16
(UTC+00:00)

USA 215 - Pass Details

Date: 08 February 2023
Orbit: 1097 x 1110 km, 123.0° (Epoch: 21 March)

Event Time Altitude Azimuth Distance (km) Brightness Sun altitude
Exits shadow 18:06:25 - 132° (SE) 3,776 5.7 -13.6°
Reaches altitude 10° 18:08:34 10° 133° (SE) 2,954 5.1 -13.9°
Maximum altitude 18:15:06 77° 220° (SW) 1,132 3.4 -15.0°
Drops below altitude 10° 18:21:38 10° 306° (NW) 2,959 6.2 -16.2°
Sets 18:24:08 0° 308° (NW) 3,918 6.9 -16.6°
